Time,TemperatureF,DewpointF,PressureIn,WindDirection,WindDirectionDegrees,WindSpeedMPH,WindSpeedGustMPH,Humidity,HourlyPrecipIn,Conditions,Clouds,dailyrainin,SoftwareType,DateUTC
2013-01-18 00:10:00,28.1,25.0,30.42,SSE,166,0.0,0.0,87,0.00,,,0.00,weatherlink.com 1.10,2013-01-18 06:10:00,
2013-01-18 00:25:00,27.8,25.0,30.42,SSE,166,0.0,0.0,88,0.00,,,0.00,weatherlink.com 1.10,2013-01-18 06:25:00,
2013-01-18 00:40:00,27.9,25.0,30.42,SSE,167,0.0,0.0,89,0.00,,,0.00,weatherlink.com 1.10,2013-01-18 06:40:00,
2013-01-18 00:55:00,27.7,25.0,30.41,SSE,166,0.0,0.0,89,0.00,,,0.00,weatherlink.com 1.10,2013-01-18 06:55:00,
2013-01-18 01:10:00,27.8,25.0,30.42,SSE,166,0.0,0.0,89,0.00,,,0.00,weatherlink.com 1.10,2013-01-18 07:10:00,
2013-01-18 01:25:00,28.7,26.0,30.42,SSE,167,0.0,1.0,90,0.00,,,0.00,weatherlink.com 1.10,2013-01-18 07:25:00,
2013-01-18 01:40:00,29.3,26.0,30.42,SSE,166,0.0,1.0,88,0.00,,,0.00,weatherlink.com 1.10,2013-01-18 07:40:00,
2013-01-18 01:55:00,29.5,26.0,30.42,SSE,166,0.0,0.0,86,0.00,,,0.00,weatherlink.com 1.10,2013-01-18 07:55:00,
2013-01-18 02:10:00,29.4,26.0,30.42,SSE,166,0.0,0.0,87,0.00,,,0.00,weatherlink.com 1.10,2013-01-18 08:10:00,
2013-01-18 02:25:00,29.0,26.0,30.41,SSE,167,0.0,0.0,87,0.00,,,0.00,weatherlink.com 1.10,2013-01-18 08:25:00,
2013-01-18 02:40:00,29.0,26.0,30.41,SSE,166,0.0,0.0,88,0.00,,,0.00,weatherlink.com 1.10,2013-01-18 08:40:00,
2013-01-18 02:55:00,29.3,27.0,30.41,SSE,167,0.0,0.0,89,0.00,,,0.00,weatherlink.com 1.10,2013-01-18 08:55:00,
2013-01-18 03:10:00,30.4,27.0,30.41,SSE,166,0.0,0.0,87,0.00,,,0.00,weatherlink.com 1.10,2013-01-18 09:10:00,
2013-01-18 03:25:00,30.3,27.0,30.40,SSE,167,0.0,0.0,86,0.00,,,0.00,weatherlink.com 1.10,2013-01-18 09:25:00,
2013-01-18 03:40:00,30.6,27.0,30.40,SSE,166,0.0,0.0,85,0.00,,,0.00,weatherlink.com 1.10,2013-01-18 09:40:00,
2013-01-18 03:55:00,30.9,27.0,30.39,East,85,0.0,2.0,85,0.00,,,0.00,weatherlink.com 1.10,2013-01-18 09:55:00,
2013-01-18 04:11:00,30.8,27.0,30.38,East,84,0.0,1.0,85,0.00,,,0.00,weatherlink.com 1.10,2013-01-18 10:11:00,
2013-01-18 04:25:00,31.3,27.0,30.38,ESE,106,0.0,2.0,84,0.00,,,0.00,weatherlink.com 1.10,2013-01-18 10:25:00,
2013-01-18 04:40:00,31.4,27.0,30.37,ESE,115,0.0,1.0,84,0.00,,,0.00,weatherlink.com 1.10,2013-01-18 10:40:00,
2013-01-18 04:55:00,31.2,27.0,30.36,ESE,115,0.0,1.0,84,0.00,,,0.00,weatherlink.com 1.10,2013-01-18 10:55:00,
2013-01-18 05:10:00,30.9,27.0,30.36,ESE,114,0.0,2.0,84,0.00,,,0.00,weatherlink.com 1.10,2013-01-18 11:10:00,
2013-01-18 05:25:00,30.9,27.0,30.36,East,98,0.0,1.0,84,0.00,,,0.00,weatherlink.com 1.10,2013-01-18 11:25:00,
2013-01-18 05:40:00,30.8,27.0,30.36,ESE,103,0.0,2.0,86,0.00,,,0.00,weatherlink.com 1.10,2013-01-18 11:40:00,
2013-01-18 05:55:00,31.3,27.0,30.35,ESE,118,0.0,2.0,84,0.00,,,0.00,weatherlink.com 1.10,2013-01-18 11:55:00,
2013-01-18 06:11:00,31.2,27.0,30.35,ESE,104,0.0,1.0,83,0.00,,,0.00,weatherlink.com 1.10,2013-01-18 12:11:00,
2013-01-18 06:26:00,30.6,26.0,30.34,ESE,107,1.0,1.0,84,0.00,,,0.00,weatherlink.com 1.10,2013-01-18 12:26:00,
2013-01-18 06:41:00,31.0,26.0,30.34,ESE,111,0.0,1.0,83,0.00,,,0.00,weatherlink.com 1.10,2013-01-18 12:41:00,
2013-01-18 06:56:00,31.5,27.0,30.34,SE,131,0.0,3.0,84,0.00,,,0.00,weatherlink.com 1.10,2013-01-18 12:56:00,
2013-01-18 07:11:00,32.3,27.0,30.34,ESE,117,0.0,3.0,82,0.00,,,0.00,weatherlink.com 1.10,2013-01-18 13:11:00,
2013-01-18 07:26:00,33.2,28.0,30.34,SE,128,0.0,6.0,80,0.00,,,0.00,weatherlink.com 1.10,2013-01-18 13:26:00,
2013-01-18 07:41:00,33.0,27.0,30.34,ESE,108,0.0,2.0,80,0.00,,,0.00,weatherlink.com 1.10,2013-01-18 13:41:00,
2013-01-18 07:56:00,33.7,28.0,30.33,ESE,110,0.0,2.0,80,0.00,,,0.00,weatherlink.com 1.10,2013-01-18 13:56:00,
2013-01-18 08:11:00,34.5,28.0,30.32,SE,124,0.0,4.0,78,0.00,,,0.00,weatherlink.com 1.10,2013-01-18 14:11:00,
2013-01-18 08:26:00,35.6,29.0,30.31,ESE,112,1.0,3.0,76,0.00,,,0.00,weatherlink.com 1.10,2013-01-18 14:26:00,
2013-01-18 08:41:00,36.6,29.0,30.31,ENE,70,0.0,6.0,74,0.00,,,0.00,weatherlink.com 1.10,2013-01-18 14:41:00,
2013-01-18 08:56:00,37.9,30.0,30.31,ESE,123,0.0,5.0,73,0.00,,,0.00,weatherlink.com 1.10,2013-01-18 14:56:00,
2013-01-18 09:11:00,40.4,30.0,30.30,ESE,121,3.0,6.0,67,0.00,,,0.00,weatherlink.com 1.10,2013-01-18 15:11:00,
2013-01-18 09:26:00,42.3,31.0,30.30,North,6,1.0,3.0,65,0.00,,,0.00,weatherlink.com 1.10,2013-01-18 15:26:00,
2013-01-18 09:41:00,43.9,31.0,30.29,SW,235,0.0,7.0,62,0.00,,,0.00,weatherlink.com 1.10,2013-01-18 15:41:00,
2013-01-18 09:56:00,45.7,32.0,30.29,ESE,107,1.0,4.0,60,0.00,,,0.00,weatherlink.com 1.10,2013-01-18 15:56:00,
2013-01-18 10:11:00,47.4,33.0,30.28,WNW,295,0.0,6.0,57,0.00,,,0.00,weatherlink.com 1.10,2013-01-18 16:11:00,
2013-01-18 10:26:00,48.8,33.0,30.26,SE,137,1.0,4.0,55,0.00,,,0.00,weatherlink.com 1.10,2013-01-18 16:26:00,
2013-01-18 10:41:00,50.0,33.0,30.25,WNW,295,1.0,5.0,53,0.00,,,0.00,weatherlink.com 1.10,2013-01-18 16:41:00,
2013-01-18 10:57:00,50.6,34.0,30.23,South,188,2.0,7.0,53,0.00,,,0.00,weatherlink.com 1.10,2013-01-18 16:57:00,
2013-01-18 11:12:00,51.5,34.0,30.22,West,263,1.0,8.0,51,0.00,,,0.00,weatherlink.com 1.10,2013-01-18 17:12:00,
2013-01-18 11:28:00,52.4,34.0,30.21,NW,326,1.0,6.0,50,0.00,,,0.00,weatherlink.com 1.10,2013-01-18 17:28:00,
2013-01-18 11:42:00,53.1,34.0,30.20,ENE,62,3.0,8.0,49,0.00,,,0.00,weatherlink.com 1.10,2013-01-18 17:42:00,
2013-01-18 11:57:00,53.4,35.0,30.18,NE,54,3.0,7.0,50,0.00,,,0.00,weatherlink.com 1.10,2013-01-18 17:57:00,
2013-01-18 12:12:00,54.5,34.0,30.17,ESE,112,2.0,8.0,47,0.00,,,0.00,weatherlink.com 1.10,2013-01-18 18:12:00,
2013-01-18 12:27:00,55.6,34.0,30.16,SSW,210,1.0,5.0,45,0.00,,,0.00,weatherlink.com 1.10,2013-01-18 18:27:00,
2013-01-18 12:42:00,56.0,35.0,30.14,SE,125,1.0,4.0,45,0.00,,,0.00,weatherlink.com 1.10,2013-01-18 18:42:00,
2013-01-18 12:57:00,56.4,34.0,30.14,WSW,243,2.0,12.0,43,0.00,,,0.00,weatherlink.com 1.10,2013-01-18 18:57:00,
2013-01-18 13:12:00,57.0,34.0,30.13,ESE,110,2.0,9.0,43,0.00,,,0.00,weatherlink.com 1.10,2013-01-18 19:12:00,
2013-01-18 13:27:00,57.0,34.0,30.13,NW,316,3.0,6.0,43,0.00,,,0.00,weatherlink.com 1.10,2013-01-18 19:27:00,
2013-01-18 13:42:00,57.6,34.0,30.12,South,172,3.0,7.0,41,0.00,,,0.00,weatherlink.com 1.10,2013-01-18 19:42:00,
2013-01-18 13:57:00,57.4,33.0,30.11,ESE,118,2.0,6.0,40,0.00,,,0.00,weatherlink.com 1.10,2013-01-18 19:57:00,
2013-01-18 14:12:00,57.3,34.0,30.10,SE,131,2.0,7.0,41,0.00,,,0.00,weatherlink.com 1.10,2013-01-18 20:12:00,
2013-01-18 14:27:00,56.8,34.0,30.09,SE,126,1.0,5.0,42,0.00,,,0.00,weatherlink.com 1.10,2013-01-18 20:27:00,
2013-01-18 14:42:00,56.5,34.0,30.08,WNW,295,1.0,10.0,43,0.00,,,0.00,weatherlink.com 1.10,2013-01-18 20:42:00,
2013-01-18 14:57:00,56.2,34.0,30.08,WNW,298,2.0,7.0,43,0.00,,,0.00,weatherlink.com 1.10,2013-01-18 20:57:00,
2013-01-18 15:12:00,56.3,33.0,30.07,ESE,107,1.0,9.0,42,0.00,,,0.00,weatherlink.com 1.10,2013-01-18 21:12:00,
2013-01-18 15:27:00,56.1,34.0,30.06,ESE,117,4.0,8.0,43,0.00,,,0.00,weatherlink.com 1.10,2013-01-18 21:27:00,
2013-01-18 15:42:00,56.1,33.0,30.06,SW,215,0.0,8.0,42,0.00,,,0.00,weatherlink.com 1.10,2013-01-18 21:42:00,
2013-01-18 15:57:00,55.7,33.0,30.06,ENE,72,3.0,5.0,43,0.00,,,0.00,weatherlink.com 1.10,2013-01-18 21:57:00,
2013-01-18 16:12:00,55.1,33.0,30.05,South,188,0.0,6.0,44,0.00,,,0.00,weatherlink.com 1.10,2013-01-18 22:12:00,
2013-01-18 16:27:00,54.0,34.0,30.05,East,81,1.0,3.0,47,0.00,,,0.00,weatherlink.com 1.10,2013-01-18 22:27:00,
2013-01-18 16:42:00,53.3,34.0,30.05,SSE,147,0.0,5.0,48,0.00,,,0.00,weatherlink.com 1.10,2013-01-18 22:42:00,
2013-01-18 16:57:00,52.5,34.0,30.07,East,88,1.0,3.0,50,0.00,,,0.00,weatherlink.com 1.10,2013-01-18 22:57:00,
2013-01-18 17:12:00,51.7,34.0,30.08,ESE,117,0.0,2.0,51,0.00,,,0.00,weatherlink.com 1.10,2013-01-18 23:12:00,
2013-01-18 17:27:00,50.0,34.0,30.08,ESE,114,1.0,2.0,54,0.00,,,0.00,weatherlink.com 1.10,2013-01-18 23:27:00,
2013-01-18 17:42:00,50.1,34.0,30.08,SE,125,0.0,3.0,54,0.00,,,0.00,weatherlink.com 1.10,2013-01-18 23:42:00,
2013-01-18 17:57:00,49.8,34.0,30.08,ESE,115,0.0,3.0,55,0.00,,,0.00,weatherlink.com 1.10,2013-01-18 23:57:00,
2013-01-18 18:12:00,49.1,34.0,30.07,West,280,1.0,3.0,56,0.00,,,0.00,weatherlink.com 1.10,2013-01-19 00:12:00,
2013-01-18 18:27:00,49.2,33.0,30.07,ENE,63,3.0,5.0,55,0.00,,,0.00,weatherlink.com 1.10,2013-01-19 00:27:00,
2013-01-18 18:44:00,48.0,33.0,30.07,ESE,118,0.0,4.0,57,0.00,,,0.00,weatherlink.com 1.10,2013-01-19 00:44:00,
2013-01-18 18:57:00,47.4,34.0,30.07,West,278,0.0,2.0,59,0.00,,,0.00,weatherlink.com 1.10,2013-01-19 00:57:00,
2013-01-18 19:13:00,47.3,33.0,30.08,ESE,109,1.0,4.0,59,0.00,,,0.00,weatherlink.com 1.10,2013-01-19 01:13:00,
2013-01-18 19:28:00,46.9,33.0,30.08,ENE,68,0.0,2.0,60,0.00,,,0.00,weatherlink.com 1.10,2013-01-19 01:28:00,
2013-01-18 19:43:00,47.3,33.0,30.08,ESE,111,0.0,3.0,59,0.00,,,0.00,weatherlink.com 1.10,2013-01-19 01:43:00,
2013-01-18 19:58:00,46.9,33.0,30.08,ESE,108,0.0,3.0,59,0.00,,,0.00,weatherlink.com 1.10,2013-01-19 01:58:00,
2013-01-18 20:13:00,46.0,33.0,30.08,East,80,1.0,1.0,61,0.00,,,0.00,weatherlink.com 1.10,2013-01-19 02:13:00,
2013-01-18 20:28:00,46.7,33.0,30.08,East,101,1.0,4.0,59,0.00,,,0.00,weatherlink.com 1.10,2013-01-19 02:28:00,
2013-01-18 20:43:00,46.5,33.0,30.07,SSE,152,0.0,4.0,59,0.00,,,0.00,weatherlink.com 1.10,2013-01-19 02:43:00,
2013-01-18 20:58:00,46.1,33.0,30.07,East,82,0.0,3.0,60,0.00,,,0.00,weatherlink.com 1.10,2013-01-19 02:58:00,
2013-01-18 21:13:00,46.3,32.0,30.07,ESE,108,0.0,4.0,59,0.00,,,0.00,weatherlink.com 1.10,2013-01-19 03:13:00,
2013-01-18 21:28:00,46.3,32.0,30.06,SE,131,1.0,6.0,59,0.00,,,0.00,weatherlink.com 1.10,2013-01-19 03:28:00,
2013-01-18 21:43:00,45.5,32.0,30.06,ESE,122,0.0,4.0,60,0.00,,,0.00,weatherlink.com 1.10,2013-01-19 03:43:00,
2013-01-18 21:58:00,45.6,32.0,30.05,SSE,153,0.0,6.0,60,0.00,,,0.00,weatherlink.com 1.10,2013-01-19 03:58:00,
2013-01-18 22:13:00,45.2,32.0,30.05,SE,134,0.0,3.0,61,0.00,,,0.00,weatherlink.com 1.10,2013-01-19 04:13:00,
2013-01-18 22:28:00,45.0,32.0,30.05,ENE,71,0.0,5.0,61,0.00,,,0.00,weatherlink.com 1.10,2013-01-19 04:28:00,
2013-01-18 22:43:00,45.0,32.0,30.04,ESE,117,0.0,2.0,61,0.00,,,0.00,weatherlink.com 1.10,2013-01-19 04:43:00,
2013-01-18 22:58:00,43.8,32.0,30.04,SSE,156,1.0,3.0,64,0.00,,,0.00,weatherlink.com 1.10,2013-01-19 04:58:00,
2013-01-18 23:13:00,44.1,32.0,30.03,SSE,148,1.0,2.0,63,0.00,,,0.00,weatherlink.com 1.10,2013-01-19 05:13:00,
2013-01-18 23:28:00,43.9,32.0,30.03,East,93,0.0,3.0,64,0.00,,,0.00,weatherlink.com 1.10,2013-01-19 05:28:00,
2013-01-18 23:43:00,43.8,32.0,30.03,ESE,117,0.0,4.0,64,0.00,,,0.00,weatherlink.com 1.10,2013-01-19 05:43:00,
2013-01-18 23:58:00,44.3,32.0,30.02,ESE,113,1.0,3.0,63,0.00,,,0.00,weatherlink.com 1.10,2013-01-19 05:58:00,